Wind_Speed
25 22 19 16 14 14 13 12 11 9 9 9 8 5 3 2 6 5 7 7 11 11 10 16 16 17 20 22 21 16 23 37 43 36 33 29 25 22 20 16 13 10 11
25 22 20 17 16 14 13 13 11 10 10 10 9 7 4 4 6 9 8 5 9 12 12 14 16 18 15 19 18 18 25 35 38 40 34 30 25 22 19 16 13 9 9
26 23 21 19 16 15 14 13 12 11 11 10 10 9 7 5 7 11 10 7 8 11 11 12 15 17 18 18 15 20 26 28 36 38 38 31 27 22 19 16 13 10 8
27 25 23 20 17 16 15 14 13 13 12 11 11 10 9 8 10 13 12 10 8 9 11 13 15 16 14 12 14 18 22 31 38 37 35 31 27 24 19 17 14 10 8
29 26 24 21 19 18 17 15 15 14 13 13 11 11 11 10 11 14 14 14 11 11 11 13 14 14 14 15 13 17 21 29 35 37 35 35 32 26 21 20 15 11 10
30 28 24 23 23 21 19 17 16 16 16 14 12 12 13 12 10 14 16 16 15 14 15 16 14 15 15 16 13 13 15 23 35 37 35 30 26 19 21 21 20 16 14
29 27 27 26 25 23 21 19 18 16 16 16 15 13 13 15 14 12 14 15 14 15 16 15 16 17 18 19 16 14 17 24 28 27 30 24 24 21 25 25 23 16 15
30 29 27 27 25 24 23 21 19 18 17 17 17 15 14 15 16 15 15 14 15 15 16 16 16 19 20 21 21 18 18 16 20 24 30 24 24 24 22 24 25 23 19
30 29 28 26 26 25 24 22 20 19 18 18 18 17 15 15 18 19 17 16 16 17 16 17 16 16 22 24 25 24 20 20 20 21 22 21 21 23 24 26 27 25 21
28 27 26 26 25 24 23 22 21 20 19 18 17 17 16 15 17 20 21 19 18 16 17 17 18 17 20 23 27 26 25 23 19 24 25 24 23 21 22 26 26 23 22
25 24 24 23 22 22 21 21 20 20 18 17 17 16 14 13 14 18 22 21 19 19 18 19 18 20 20 24 27 29 26 25 23 25 23 23 22 20 20 22 22 26 23
23 22 22 21 22 21 20 20 19 18 18 17 16 15 14 14 14 16 20 19 19 18 19 18 18 19 17 20 26 27 26 27 25 25 23 20 20 20 21 22 23 26 26
20 20 20 20 20 19 18 18 18 17 16 14 13 11 9 9 10 12 16 16 17 17 18 19 19 18 18 21 23 25 30 30 26 26 23 21 20 23 21 22 23 27 27
22 21 20 19 19 18 17 17 16 15 14 15 12 10 9 8 9 11 15 16 15 16 15 16 18 19 22 22 24 25 27 27 27 25 23 22 23 23 24 22 23 24 28
23 22 20 18 17 16 15 15 15 15 15 15 13 12 11 10 10 10 13 14 12 15 10 14 19 19 20 18 20 25 24 24 25 25 24 24 23 26 25 23 24 26 28
25 23 20 18 16 14 13 13 13 13 12 13 15 15 14 13 12 11 12 13 12 11 11 10 13 15 18 19 21 19 26 28 28 29 28 28 27 26 27 28 30 30 31
21 20 18 16 14 13 12 11 10 11 11 12 13 16 16 16 15 14 14 13 11 10 12 10 9 7 6 12 16 20 22 21 23 24 26 26 27 29 29 31 31 33 34
19 17 14 13 11 10 9 8 8 8 9 9 11 12 14 17 17 16 16 14 13 13 12 11 11 11 12 12 12 12 17 22 22 24 27 29 31 31 32 32 31 31 32
18 16 14 12 11 9 8 8 9 9 9 9 9 9 9 9 13 15 19 18 17 15 14 14 15 15 16 15 14 15 16 17 19 26 29 29 28 28 30 31 31 31 33
17 15 13 11 10 9 8 7 7 7 8 9 9 10 10 8 8 8 12 15 17 20 20 19 19 19 18 16 17 17 17 16 14 15 17 21 27 29 31 32 34 34 35
14 13 11 9 8 7 6 5 6 6 6 6 8 9 10 9 10 10 10 10 11 12 13 15 16 16 18 17 16 17 17 17 17 16 18 20 19 20 22 25 27 29 31
13 11 10 8 7 6 5 4 4 3 3 4 5 6 8 8 8 10 10 11 13 13 13 13 14 15 19 20 19 19 20 20 19 18 18 18 19 20 21 21 23 25 28
13 12 11 10 9 7 5 4 3 1 1 2 4 5 6 7 7 9 10 11 12 13 14 16 17 16 15 15 16 18 19 19 19 19 19 19 19 19 20 22 22 23 24
13 12 11 10 8 7 6 5 4 3 3 4 5 6 7 8 9 11 12 11 13 13 14 14 15 16 17 19 21 19 19 19 19 19 20 21 20 19 20 20 21 22 22
13 11 10 9 7 6 4 4 4 4 4 4 5 6 7 8 8 10 11 12 13 14 14 16 18 18 18 18 18 20 22 24 24 22 20 21 21 21 21 21 21 21 22
12 11 9 7 6 4 3 3 3 4 5 6 7 7 8 8 9 10 11 12 13 14 14 14 15 17 18 19 22 20 20 21 21 21 23 24 23 22 22 22 22 22 22
Wind_Direction
201 201 203 204 204 208 207 208 212 206 208 202 197 202 190 146 163 145 142 146 155 157 164 164 162 167 169 177 180 185 172 164 157 153 156 158 161 170 166 171 165 149 127
202 203 204 204 204 207 206 209 211 210 207 205 201 201 198 170 178 159 161 155 159 162 161 177 178 179 185 186 198 194 181 173 169 162 162 164 169 177 178 183 170 150 136
203 204 207 207 206 208 208 210 211 213 209 208 208 199 198 184 182 174 173 158 162 166 162 166 168 167 166 169 192 203 192 187 178 171 169 173 175 183 186 182 177 171 160
206 207 209 209 208 210 213 211 213 215 213 211 212 205 199 198 190 189 182 180 161 165 173 163 171 178 184 188 194 197 204 193 189 180 177 177 185 184 195 192 183 185 184
208 210 211 208 210 214 216 216 215 218 218 216 215 209 205 208 192 194 196 195 192 191 184 191 195 193 200 203 207 204 205 199 196 185 185 186 191 191 199 201 200 203 202
210 213 213 211 213 217 218 219 218 218 222 222 220 216 212 211 208 197 202 210 212 214 210 207 202 200 201 202 209 225 220 205 195 202 199 199 198 205 211 215 212 206 211
212 214 215 216 217 219 221 222 222 221 224 225 224 221 217 217 217 207 211 213 219 214 218 216 216 212 205 206 199 210 209 215 225 224 207 206 216 226 222 221 218 224 231
213 216 218 218 219 220 222 224 224 224 224 225 226 225 222 221 219 215 214 221 224 221 219 221 224 224 214 205 198 203 202 205 221 222 215 226 239 231 229 229 221 223 224
215 218 219 219 220 220 221 222 223 224 224 225 226 227 227 224 220 219 214 221 227 219 222 221 226 221 215 212 205 204 209 207 217 221 224 237 242 245 238 225 226 226 226
215 217 219 219 219 218 218 219 221 223 224 225 227 231 235 236 226 218 216 221 228 226 227 230 225 224 217 219 218 209 215 207 217 231 231 238 242 245 244 235 240 232 234
213 214 215 214 213 212 212 214 216 220 224 224 225 230 236 238 234 226 223 221 225 233 233 230 235 229 221 217 226 222 217 212 226 231 239 235 236 237 232 225 233 238 246
206 206 204 202 203 205 207 209 212 215 219 222 224 225 230 234 231 227 230 228 232 238 233 237 242 236 229 235 227 226 223 226 232 238 236 234 237 239 233 228 229 231 235
189 189 189 191 194 197 200 203 207 211 215 220 222 226 230 233 232 239 225 222 232 240 239 238 238 244 240 235 231 228 225 228 226 237 240 235 242 242 243 240 231 230 236
173 175 177 182 185 188 192 196 202 208 212 211 209 221 236 239 239 244 214 220 237 241 249 245 244 241 231 239 237 228 229 232 232 243 238 237 241 245 247 245 243 240 240
164 164 167 172 178 182 188 196 203 207 211 210 206 216 231 240 243 234 217 230 246 241 236 263 265 231 238 232 238 233 231 233 232 233 234 240 241 247 249 249 243 240 242
151 151 153 157 160 168 178 191 200 209 215 218 216 213 223 233 235 229 226 233 239 238 239 242 250 246 238 230 230 241 236 238 242 237 238 236 241 248 254 253 251 247 244
151 150 152 156 161 168 174 181 189 199 208 216 224 225 222 232 234 235 236 242 241 241 227 221 213 222 226 240 242 238 241 241 238 238 237 239 244 249 259 259 257 254 251
153 153 156 160 168 178 187 194 201 203 203 209 219 226 230 234 236 237 243 244 244 246 244 242 235 230 235 247 258 262 254 240 239 245 243 246 247 250 257 260 258 257 256
154 155 158 163 170 178 188 203 215 219 221 223 222 221 226 235 240 237 236 237 242 247 250 253 258 256 249 246 255 260 259 263 259 248 242 246 257 253 256 260 258 260 259
155 156 159 164 169 177 186 194 205 215 221 224 227 233 236 233 228 234 236 240 240 238 244 250 252 255 259 257 253 255 261 261 264 266 268 264 259 258 259 258 257 259 259
157 156 156 158 161 171 184 207 221 223 227 230 236 238 239 241 241 236 237 243 247 247 248 247 245 247 251 255 254 253 255 258 264 267 266 266 268 269 266 264 262 262 261
145 142 139 138 141 146 155 171 187 209 226 241 252 260 260 247 243 244 242 241 244 246 248 253 253 250 248 252 256 259 261 262 265 266 270 270 270 268 267 267 266 264 263
137 134 130 126 122 117 110 105 96 69 356 319 307 300 297 282 270 263 261 257 256 256 254 252 253 251 253 255 255 256 260 262 263 266 269 271 273 275 273 270 271 271 269
139 133 127 123 117 112 104 91 71 40 12 351 335 321 308 302 295 291 291 286 282 280 276 270 266 264 262 258 251 253 256 258 260 262 265 270 276 279 282 279 275 274 275
139 134 128 122 116 105 87 70 47 25 4 353 338 326 316 313 307 301 298 298 293 290 284 280 280 280 278 274 269 261 255 254 252 253 258 262 265 271 276 281 284 283 279
142 139 135 126 113 99 81 56 23 359 352 347 340 332 329 326 323 315 308 304 301 298 295 291 286 283 280 274 274 275 270 264 261 256 254 254 258 262 269 275 278 282 284
Height
1474 1476 1480 1484 1486 1490 1492 1493 1496 1496 1499 1500 1502 1504 1505 1506 1507 1508 1508 1509 1508 1510 1512 1513 1516 1520 1523 1525 1526 1527 1530 1532 1534 1543 1548 1553 1556 1560 1561 1564 1565 1567 1567
1472 1475 1478 1481 1484 1488 1490 1491 1494 1496 1498 1499 1501 1503 1504 1506 1507 1508 1510 1510 1511 1512 1513 1515 1518 1520 1523 1526 1529 1530 1532 1535 1536 1540 1549 1553 1556 1560 1561 1564 1566 1567 1566
1470 1473 1476 1479 1483 1486 1488 1490 1491 1494 1497 1498 1499 1501 1503 1505 1506 1509 1511 1512 1512 1513 1515 1516 1518 1521 1524 1527 1530 1531 1534 1536 1539 1540 1545 1551 1555 1559 1561 1564 1565 1566 1566
1466 1469 1474 1478 1481 1484 1486 1488 1489 1492 1495 1497 1498 1499 1501 1503 1505 1508 1510 1512 1514 1515 1516 1518 1520 1523 1526 1528 1529 1531 1533 1536 1539 1541 1545 1550 1554 1556 1560 1561 1563 1566 1567
1462 1466 1470 1475 1478 1481 1484 1486 1488 1489 1492 1496 1497 1498 1499 1501 1503 1506 1509 1511 1514 1515 1517 1518 1520 1522 1525 1528 1530 1531 1532 1535 1539 1541 1544 1545 1550 1554 1557 1560 1561 1564 1566
1458 1463 1468 1471 1475 1477 1480 1483 1485 1487 1490 1493 1495 1496 1498 1499 1501 1504 1507 1509 1511 1514 1516 1517 1519 1521 1523 1526 1529 1532 1534 1535 1537 1539 1542 1545 1550 1553 1556 1559 1560 1562 1565
1454 1459 1463 1467 1471 1474 1477 1479 1482 1484 1487 1490 1492 1494 1496 1498 1500 1502 1505 1507 1509 1511 1513 1515 1517 1520 1521 1524 1527 1530 1532 1535 1538 1539 1542 1546 1547 1550 1552 1555 1557 1560 1562
1450 1454 1458 1462 1466 1470 1473 1476 1479 1481 1484 1487 1489 1491 1493 1495 1498 1500 1502 1505 1507 1508 1510 1512 1514 1516 1519 1521 1524 1528 1530 1533 1537 1539 1543 1545 1547 1547 1551 1553 1555 1557 1560
1445 1449 1453 1458 1461 1466 1469 1472 1475 1478 1480 1483 1485 1487 1489 1492 1494 1497 1500 1502 1504 1505 1507 1509 1511 1513 1515 1519 1522 1525 1528 1530 1535 1538 1541 1543 1545 1547 1548 1550 1552 1555 1556
1441 1445 1449 1453 1457 1461 1465 1468 1472 1475 1478 1480 1482 1483 1486 1488 1490 1493 1496 1499 1502 1503 1505 1507 1507 1510 1512 1515 1518 1521 1524 1528 1531 1533 1536 1538 1540 1541 1543 1546 1549 1551 1553
1439 1442 1445 1450 1454 1458 1461 1465 1469 1472 1476 1477 1479 1481 1483 1485 1487 1490 1492 1495 1498 1499 1501 1503 1505 1507 1509 1511 1515 1517 1521 1525 1528 1529 1532 1532 1534 1536 1538 1541 1545 1548 1550
1436 1439 1443 1447 1451 1454 1458 1463 1466 1469 1472 1474 1476 1478 1479 1481 1483 1486 1489 1492 1495 1497 1498 1500 1502 1502 1505 1508 1510 1513 1516 1520 1522 1525 1527 1528 1530 1533 1535 1537 1540 1542 1544
1432 1437 1441 1445 1449 1452 1456 1460 1463 1467 1469 1471 1473 1475 1477 1478 1480 1483 1486 1489 1491 1493 1494 1495 1497 1499 1501 1503 1505 1508 1511 1514 1517 1519 1521 1524 1527 1529 1530 1533 1535 1536 1539
1431 1436 1440 1444 1448 1451 1455 1458 1462 1465 1467 1469 1471 1474 1475 1477 1478 1481 1483 1486 1488 1489 1490 1491 1493 1495 1496 1499 1501 1503 1506 1508 1511 1514 1517 1520 1523 1524 1525 1528 1530 1531 1534
1431 1434 1438 1443 1447 1450 1453 1457 1460 1463 1465 1467 1469 1471 1473 1475 1477 1478 1480 1483 1485 1485 1486 1487 1488 1489 1491 1493 1496 1498 1501 1503 1505 1508 1511 1514 1517 1518 1520 1522 1524 1526 1527
1431 1434 1438 1442 1445 1448 1452 1455 1458 1461 1463 1465 1467 1469 1471 1473 1474 1476 1479 1480 1481 1483 1483 1483 1484 1485 1487 1489 1491 1494 1496 1497 1500 1501 1504 1508 1510 1512 1514 1516 1517 1519 1520
1432 1434 1437 1441 1444 1447 1451 1454 1456 1458 1459 1462 1464 1466 1468 1471 1473 1474 1475 1477 1478 1480 1480 1481 1482 1483 1484 1485 1487 1488 1491 1493 1493 1495 1498 1501 1504 1506 1507 1508 1510 1511 1513
1431 1434 1437 1439 1442 1446 1449 1451 1453 1455 1457 1459 1461 1463 1464 1466 1469 1471 1473 1474 1475 1477 1477 1478 1479 1480 1482 1483 1484 1484 1485 1486 1489 1490 1492 1494 1496 1498 1499 1500 1501 1503 1505
1431 1433 1436 1438 1441 1444 1447 1449 1452 1454 1455 1458 1459 1461 1461 1462 1465 1466 1469 1471 1472 1473 1475 1475 1476 1477 1478 1479 1480 1481 1482 1483 1483 1484 1485 1487 1488 1489 1491 1493 1494 1495 1497
1431 1433 1435 1437 1440 1442 1444 1446 1449 1451 1453 1455 1456 1458 1458 1460 1461 1462 1464 1465 1467 1469 1471 1472 1473 1474 1476 1476 1476 1477 1478 1478 1478 1479 1479 1480 1481 1482 1483 1484 1486 1487 1488
1430 1431 1433 1435 1438 1440 1442 1445 1448 1449 1451 1452 1454 1455 1456 1458 1459 1460 1461 1461 1463 1464 1464 1467 1468 1470 1471 1472 1473 1473 1473 1474 1474 1474 1474 1475 1475 1475 1476 1476 1477 1478 1479
1429 1431 1432 1434 1437 1439 1442 1444 1446 1447 1449 1450 1452 1452 1453 1455 1456 1457 1457 1458 1459 1460 1460 1462 1463 1464 1466 1467 1468 1469 1469 1469 1468 1468 1469 1469 1469 1469 1469 1470 1470 1470 1471
1429 1431 1433 1435 1437 1440 1442 1444 1446 1447 1448 1449 1451 1452 1453 1454 1453 1454 1454 1454 1455 1456 1456 1457 1457 1459 1460 1461 1462 1462 1462 1463 1463 1463 1463 1463 1464 1464 1463 1463 1464 1464 1464
1430 1432 1434 1436 1439 1441 1442 1443 1445 1446 1447 1448 1449 1451 1453 1452 1452 1452 1451 1451 1452 1453 1453 1453 1453 1454 1454 1455 1455 1456 1457 1457 1457 1458 1458 1458 1458 1458 1458 1457 1457 1457 1458
1430 1433 1435 1437 1439 1441 1443 1443 1445 1446 1447 1447 1448 1449 1450 1450 1449 1449 1449 1448 1449 1449 1449 1449 1449 1449 1449 1449 1449 1449 1449 1450 1450 1451 1452 1452 1452 1453 1453 1452 1452 1451 1451
1429 1432 1435 1437 1439 1440 1442 1443 1445 1447 1447 1447 1447 1448 1447 1447 1446 1446 1446 1445 1445 1445 1444 1444 1445 1444 1444 1444 1443 1443 1443 1443 1443 1443 1444 1445 1445 1446 1446 1447 1447 1446 1446